Location: Home
(42.5358°N, 72.7383°W)
Time: 18:30:22
(UTC-05:00)

Vanguard 2 - All Passes

Search period start: 29 November 2021 00:00
Search period end: 09 December 2021 00:00
Orbit: 554 x 2936 km, 32.9° (Epoch: 29 November)

Date Brightness Start Highest point End Pass type
(mag) Time Alt. Az. Time Alt. Az. Time Alt. Az.
29 Nov - 13:43:15 10° SSW 13:47:43 24° SSE 13:54:00 10° E daylight
29 Nov - 15:49:03 10° WSW 15:55:40 45° S 16:06:25 10° ESE daylight
29 Nov - 17:56:30 10° WSW 18:05:03 43° S 18:18:23 10° SE visible
29 Nov - 20:05:46 10° WSW 20:15:15 27° SSW 20:27:45 10° SSE visible
30 Nov - 14:00:14 10° SW 14:05:01 29° SSE 14:12:02 10° E daylight
30 Nov - 16:06:33 10° WSW 16:13:14 45° S 16:24:08 10° ESE daylight
30 Nov - 18:14:15 10° W 18:22:43 38° SSW 18:35:33 10° SE visible
30 Nov - 20:24:23 10° WSW 20:32:51 21° SSW 20:43:29 10° S visible
01 Dec - 12:14:23 10° SSE 12:15:19 10° SE 12:16:17 10° SE daylight
01 Dec - 14:17:25 10° SW 14:22:25 34° SSE 14:29:57 10° ESE daylight
01 Dec - 16:24:06 10° WSW 16:30:51 43° S 16:41:45 10° ESE daylight
01 Dec - 18:32:08 10° WSW 18:40:23 32° SSW 18:52:27 10° SE visible
01 Dec - 20:43:50 10° WSW 20:50:26 16° SSW 20:58:14 10° S visible
02 Dec - 12:29:46 10° S 12:32:30 15° SSE 12:35:46 10° ESE daylight
02 Dec - 14:34:45 10° SW 14:39:52 37° SSE 14:47:45 10° ESE daylight
02 Dec - 16:41:44 10° WSW 16:48:28 40° S 16:59:13 10° SE visible
02 Dec - 18:50:14 10° WSW 18:58:02 26° SSW 19:08:57 10° SSE visible
02 Dec - 21:07:24 10° SW 21:08:02 10° SW 21:08:41 10° SSW visible
03 Dec - 12:46:23 10° SSW 12:49:46 20° SSE 12:54:06 10° ESE daylight
03 Dec - 14:52:11 10° WSW 14:57:24 38° S 15:05:29 10° ESE daylight
03 Dec - 16:59:26 10° WSW 17:06:06 35° S 17:16:29 10° SE visible
03 Dec - 19:08:42 10° WSW 19:15:42 21° SSW 19:24:55 10° SSE visible
04 Dec - 13:03:22 10° SW 13:07:07 24° SSE 13:12:06 10° ESE daylight
04 Dec - 15:09:42 10° WSW 15:14:56 37° S 15:23:06 10° ESE daylight
04 Dec - 17:17:16 10° WSW 17:23:46 30° SSW 17:33:29 10° SE visible
04 Dec - 19:27:55 10° WSW 19:33:21 15° SSW 19:39:56 10° S visible
05 Dec - 13:20:36 10° SW 13:24:32 28° SSE 13:29:57 10° ESE daylight
05 Dec - 15:27:17 10° WSW 15:32:33 35° S 15:40:36 10° ESE daylight
05 Dec - 17:35:18 10° WSW 17:41:27 24° SSW 17:50:08 10° SSE visible
06 Dec - 11:32:44 10° S 11:34:42 13° SSE 11:36:48 10° SE daylight
06 Dec - 13:37:57 10° SW 13:42:01 30° S 13:47:41 10° ESE daylight
06 Dec - 15:44:57 10° WSW 15:50:09 31° S 15:57:55 10° SE daylight
06 Dec - 17:53:42 10° WSW 17:59:06 19° SSW 18:06:15 10° SSE visible
07 Dec - 11:49:20 10° SSW 11:52:03 17° SSE 11:55:07 10° ESE daylight
07 Dec - 13:55:25 10° WSW 13:59:32 30° S 14:05:19 10° ESE daylight
07 Dec - 16:02:46 10° WSW 16:07:46 26° SSW 16:15:00 10° SE daylight
07 Dec - 18:12:56 10° SW 18:16:47 13° SSW 18:21:22 10° S visible
08 Dec - 12:06:23 10° SW 12:09:28 21° SSE 12:13:05 10° ESE daylight
08 Dec - 14:12:59 10° WSW 14:17:05 29° S 14:22:49 10° SE daylight
08 Dec - 16:20:48 10° WSW 16:25:25 21° SSW 16:31:45 10° SSE daylight
